CALSPHERE 1 1 00900U 64063C 12037.33775627 .00000423 00000-0 46254-3 0 6070 2 00900 090.1450 342.3676 0025731 227.0791 132.8246 13.71056369351542 CALSPHERE 2 1 00902U 64063E 12035.88992672 +.00000075 +00000-0 +10000-3 0 06254 2 00902 090.1460 344.9336 0018722 341.5922 018.4544 13.52510636147494 LCS 1 1 01361U 65034C 12035.79258160 .00000009 00000-0 10000-3 0 3377 2 01361 032.1439 033.6124 0008789 183.4123 176.6316 09.89281991690683 TEMPSAT 1 1 01512U 65065E 12036.69123431 .00000059 00000-0 10000-3 0 6672 2 01512 089.7888 281.2507 0068349 215.3793 144.2802 13.33294369261018 CALSPHERE 4(A) 1 01520U 65065H 12037.19380831 .00000061 00000-0 10000-3 0 8390 2 01520 090.1632 099.6688 0071771 129.8534 230.8953 13.35420854262906 OPS 5712 (P/L 160) 1 02826U 67053A 12037.19836653 .00001415 00000-0 46619-3 0 5281 2 02826 069.9314 109.6165 0010395 258.1754 101.8208 14.40131755305964 OPS 5712 (P/L 153) 1 02874U 67053H 12035.88382493 +.00000022 +00000-0 +55172-4 0 09918 2 02874 069.9677 191.4686 0007976 182.2885 177.8184 13.96011363274894 SURCAL 150B 1 02909U 67053J 12037.52531648 .00001448 00000-0 39834-3 0 7195 2 02909 069.9528 255.6630 0001665 311.7007 048.3988 14.48897422312493 RIGIDSPHERE 2 (LCS 4) 1 05398U 71067E 12037.10688512 .00000341 00000-0 11897-3 0 3867 2 05398 087.6269 345.0418 0062909 249.9831 109.4568 14.31676100122447 OPS 8180 (RADCAT) 1 06212U 72076A 12035.73037898 +.00047198 +00000-0 +71604-3 0 05412 2 06212 098.5734 212.7688 0002139 259.3236 100.7766 15.54476228270479